CDT,Max TemperatureF,Mean TemperatureF,Min TemperatureF,Max Dew PointF,MeanDew PointF,Min DewpointF,Max Humidity, Mean Humidity, Min Humidity, Max Sea Level PressureIn, Mean Sea Level PressureIn, Min Sea Level PressureIn, Max VisibilityMiles, Mean VisibilityMiles, Min VisibilityMiles, Max Wind SpeedMPH, Mean Wind SpeedMPH, Max Gust SpeedMPH,PrecipitationIn, CloudCover, Events, WindDirDegrees
2012-8-1,95,83,71,70,65,61,93,62,31,30.07,29.87,29.75,10,9,2,17,6,25,0.41,3,Rain-Thunderstorm,117
2012-8-2,89,79,68,72,68,66,90,71,52,29.99,29.84,29.72,10,9,1,40,6,55,0.69,3,Rain-Thunderstorm,28
2012-8-3,92,81,70,72,69,65,93,67,41,29.87,29.77,29.70,10,10,10,15,6,20,T,0,Rain-Thunderstorm,119
2012-8-4,81,72,62,70,62,54,87,68,49,30.08,29.91,29.70,10,10,9,25,10,31,0.02,2,Rain-Thunderstorm,4
2012-8-5,88,73,57,58,56,54,93,64,35,30.25,30.17,30.09,10,10,10,9,4,18,0.00,0,,358
2012-8-6,96,80,63,62,56,52,78,52,25,30.13,30.03,29.91,10,10,10,17,9,22,0.00,1,,158
2012-8-7,93,81,68,66,59,49,68,50,32,30.02,29.93,29.88,10,10,10,23,6,31,T,1,Rain-Thunderstorm,207
2012-8-8,99,82,65,66,60,52,87,55,22,29.97,29.91,29.83,10,10,10,17,8,24,0.00,0,,305
2012-8-9,84,75,65,63,59,53,87,62,37,30.04,29.99,29.91,10,10,10,22,11,25,0.00,0,,4
2012-8-10,84,71,57,58,54,49,93,62,31,30.11,30.05,30.01,10,10,10,15,5,21,0.00,0,,19
2012-8-11,87,71,55,56,51,45,86,56,25,30.06,29.98,29.86,10,10,10,16,7,21,0.00,0,,129
2012-8-12,86,74,62,62,57,47,73,55,36,30.00,29.90,29.82,10,10,5,23,10,29,0.11,1,Rain-Thunderstorm,333
2012-8-13,81,70,58,57,54,51,86,61,36,30.12,30.05,30.00,10,10,10,16,7,22,0.00,2,,9
2012-8-14,78,70,62,64,60,56,93,75,56,30.06,29.99,29.88,10,9,2,18,9,24,0.30,5,Rain,174
2012-8-15,91,75,58,66,62,56,93,67,41,29.89,29.80,29.69,10,10,5,22,11,31,T,0,,179
2012-8-16,80,68,56,67,53,47,68,55,41,30.13,30.02,29.79,10,10,10,24,12,30,0.00,0,,1
2012-8-17,82,66,49,49,46,40,89,56,23,30.16,30.09,29.99,10,10,10,9,4,14,0.00,0,,18
2012-8-18,83,68,52,53,48,45,72,52,31,30.03,29.95,29.86,10,10,10,16,5,21,0.01,3,,78
2012-8-19,80,66,51,52,47,42,89,58,26,30.10,30.03,29.99,10,10,10,15,6,20,0.00,2,,27
2012-8-20,88,70,51,48,44,42,71,46,21,30.05,29.99,29.92,10,10,10,13,6,16,0.00,0,,205
2012-8-21,92,75,57,52,46,42,60,40,20,30.01,29.97,29.94,10,10,10,15,8,24,0.00,0,,209
2012-8-22,92,80,67,61,51,44,68,45,22,30.00,29.94,29.87,10,10,10,25,14,32,0.00,0,,195
2012-8-23,91,79,66,67,59,50,93,65,36,29.96,29.89,29.81,10,9,2,29,14,36,1.20,4,Rain-Thunderstorm,163
2012-8-24,73,69,65,67,65,62,100,90,79,29.97,29.87,29.79,10,7,1,22,13,28,0.16,8,Rain-Thunderstorm,142
2012-8-25,77,72,66,70,67,64,97,87,76,29.90,29.85,29.76,10,7,2,22,7,28,0.44,7,Rain,84
2012-8-26,83,74,65,68,66,64,100,81,62,30.07,29.97,29.87,10,9,2,9,4,15,0.00,5,,33
2012-8-27,87,75,62,69,65,61,100,73,46,30.17,30.10,30.05,10,8,1,13,5,17,0.00,0,,132
2012-8-28,89,78,66,63,60,55,87,61,34,30.15,30.05,29.96,10,10,10,18,11,23,0.00,0,,184
2012-8-29,90,77,64,61,58,55,73,53,32,30.01,29.94,29.87,10,10,9,20,11,25,0.00,0,,200
2012-8-30,93,78,63,63,58,56,68,49,30,29.95,29.90,29.86,10,10,10,15,8,18,0.00,0,,184
2012-8-31,92,76,60,66,62,55,90,63,36,29.96,29.93,29.89,10,10,10,16,4,21,0.00,0,,99